Location: ????????
(55.6189°N, 38.3031°E)
Time: 21:27:03
(UTC+00:00)

deb Kosmos-1763 - Pass Details

Date: 15 November 2019
Orbit: 473 x 485 km, 74.0° (Epoch: 09 December)

Event Time Altitude Azimuth Distance (km) Brightness Sun altitude
Exits shadow 03:10:05 - 216° (SW) 1,890 6.8 -15.3°
Reaches altitude 10° 03:10:37 10° 218° (SW) 1,673 6.5 -15.2°
Maximum altitude 03:14:18 65° 301° (WNW) 543 4.0 -14.7°
Drops below altitude 10° 03:18:00 10° 24° (NNE) 1,686 6.9 -14.2°
Sets 03:20:09 0° 27° (NNE) 2,571 7.9 -13.9°
